DAL540 KSAN-KATL

Flight info

Callsign DAL540
Flight time N/A
Altitude 33000
Route ZZOOO4 TGOLD PXR ONM CNX TURKI CDS ADM GRAZN MEM HUTCC KNSAW RUSSA GLAVN2
Aircraft A321/M-SDE3FGHIRWY/LB1

Departure

Time 2026-04-20 15:16
Airport San Diego International Airport (KSAN)

Arrival

Time N/A
Airport Hartsfield Jackson Atlanta International Airport (KATL)
Time Latitude Longitude Altitude Speed Heading
2026-04-20 15:06 32.73459 -117.20453 22 ft 0 kts 134°
2026-04-20 15:09 32.73460 -117.20455 21 ft 3 kts 134°
2026-04-20 15:09 32.73474 -117.20471 22 ft 3 kts 126°
2026-04-20 15:10 32.73483 -117.20492 20 ft 3 kts 96°
2026-04-20 15:10 32.73482 -117.20516 19 ft 3 kts 65°
2026-04-20 15:10 32.73472 -117.20534 21 ft 1 kts 43°
2026-04-20 15:11 32.73490 -117.20518 19 ft 11 kts 37°
2026-04-20 15:11 32.73572 -117.20427 17 ft 18 kts 50°
2026-04-20 15:12 32.73578 -117.20303 21 ft 14 kts 105°
2026-04-20 15:12 32.73544 -117.20159 25 ft 25 kts 106°
2026-04-20 15:12 32.73488 -117.19932 23 ft 29 kts 107°
2026-04-20 15:12 32.73436 -117.19706 23 ft 28 kts 105°
2026-04-20 15:13 32.73382 -117.19492 24 ft 26 kts 107°
2026-04-20 15:13 32.73329 -117.19284 23 ft 26 kts 106°
2026-04-20 15:13 32.73278 -117.19066 22 ft 32 kts 105°
2026-04-20 15:13 32.73208 -117.18773 25 ft 38 kts 106°
2026-04-20 15:14 32.73136 -117.18478 21 ft 37 kts 106°
2026-04-20 15:14 32.73070 -117.18192 19 ft 36 kts 106°
2026-04-20 15:14 32.72996 -117.17904 19 ft 35 kts 106°
2026-04-20 15:14 32.72954 -117.17727 18 ft 15 kts 104°
2026-04-20 15:15 32.72960 -117.17618 19 ft 12 kts 73°
2026-04-20 15:15 32.73024 -117.17601 20 ft 12 kts 304°
2026-04-20 15:15 32.73055 -117.17721 18 ft 30 kts 285°
2026-04-20 15:15 32.73196 -117.18312 22 ft 114 kts 285°
2026-04-20 15:16 32.73482 -117.19483 57 ft 174 kts 287°
2026-04-20 15:16 32.73827 -117.20896 807 ft 181 kts 286°
2026-04-20 15:16 32.74167 -117.22322 1690 ft 177 kts 285°
2026-04-20 15:16 32.74514 -117.23767 2002 ft 191 kts 285°
2026-04-20 15:17 32.74900 -117.25361 2147 ft 211 kts 286°
2026-04-20 15:17 32.75325 -117.27113 2286 ft 231 kts 286°
2026-04-20 15:17 32.75777 -117.28985 2711 ft 238 kts 285°
2026-04-20 15:17 32.76237 -117.30891 3260 ft 243 kts 285°
2026-04-20 15:18 32.76535 -117.32860 3915 ft 244 kts 263°
2026-04-20 15:18 32.75895 -117.34697 4529 ft 245 kts 226°
2026-04-20 15:18 32.74437 -117.35693 5128 ft 247 kts 188°
2026-04-20 15:18 32.72755 -117.35428 5748 ft 249 kts 152°
2026-04-20 15:19 32.71369 -117.34198 6441 ft 250 kts 136°
2026-04-20 15:19 32.70160 -117.32711 7098 ft 251 kts 135°
2026-04-20 15:19 32.68922 -117.31235 7724 ft 253 kts 136°
2026-04-20 15:19 32.67653 -117.29767 8343 ft 256 kts 137°
2026-04-20 15:20 32.66367 -117.28290 8958 ft 259 kts 137°
2026-04-20 15:20 32.65082 -117.26815 9553 ft 262 kts 137°
2026-04-20 15:20 32.63863 -117.25197 10134 ft 266 kts 124°
2026-04-20 15:20 32.63075 -117.23181 10543 ft 278 kts 107°
2026-04-20 15:21 32.62781 -117.20827 10682 ft 300 kts 97°
2026-04-20 15:21 32.62566 -117.18285 10811 ft 320 kts 97°
2026-04-20 15:21 32.62329 -117.15582 10941 ft 339 kts 97°
2026-04-20 15:21 32.62161 -117.13704 11022 ft 352 kts 97°
2026-04-20 15:22 32.62101 -117.10729 11135 ft 371 kts 85°
2026-04-20 15:22 32.62754 -117.07696 11302 ft 388 kts 70°
2026-04-20 15:22 32.63747 -117.04686 11709 ft 395 kts 70°
2026-04-20 15:22 32.64749 -117.01641 12223 ft 398 kts 70°
2026-04-20 15:23 32.65755 -116.98559 12729 ft 402 kts 71°
2026-04-20 15:23 32.66487 -116.95352 13222 ft 404 kts 82°
2026-04-20 15:23 32.66735 -116.92027 13721 ft 406 kts 90°
2026-04-20 15:23 32.66805 -116.88669 14163 ft 409 kts 90°
2026-04-20 15:24 32.66880 -116.85280 14600 ft 412 kts 90°
2026-04-20 15:24 32.66959 -116.81862 15025 ft 416 kts 90°
2026-04-20 15:24 32.67036 -116.78420 15464 ft 419 kts 90°
2026-04-20 15:24 32.67110 -116.74956 15883 ft 422 kts 90°
2026-04-20 15:25 32.67134 -116.71468 16298 ft 424 kts 91°
2026-04-20 15:25 32.67094 -116.67954 16727 ft 427 kts 92°
2026-04-20 15:25 32.67016 -116.64418 16923 ft 429 kts 92°
2026-04-20 15:25 32.66926 -116.60888 16962 ft 429 kts 92°
2026-04-20 15:26 32.66840 -116.57352 16953 ft 428 kts 92°
2026-04-20 15:26 32.66766 -116.53823 16955 ft 428 kts 92°
2026-04-20 15:26 32.66702 -116.50290 16952 ft 428 kts 92°
2026-04-20 15:26 32.66644 -116.46809 16952 ft 428 kts 92°
2026-04-20 15:27 32.66598 -116.43280 16949 ft 428 kts 90°
2026-04-20 15:27 32.66834 -116.39761 16946 ft 428 kts 84°
2026-04-20 15:27 32.67168 -116.36249 16941 ft 428 kts 84°
2026-04-20 15:27 32.67492 -116.32740 16941 ft 428 kts 84°
2026-04-20 15:28 32.67807 -116.29228 16937 ft 428 kts 85°
2026-04-20 15:28 32.68117 -116.25720 16936 ft 427 kts 85°
2026-04-20 15:28 32.68428 -116.22211 16931 ft 427 kts 85°
2026-04-20 15:28 32.68741 -116.18707 16925 ft 427 kts 85°
2026-04-20 15:29 32.69055 -116.15200 16926 ft 427 kts 85°
2026-04-20 15:29 32.69367 -116.11694 16924 ft 427 kts 85°
2026-04-20 15:29 32.69679 -116.08189 17008 ft 429 kts 85°
2026-04-20 15:29 32.69991 -116.04658 17465 ft 431 kts 85°
2026-04-20 15:30 32.70305 -116.01112 17902 ft 434 kts 85°
2026-04-20 15:30 32.70631 -115.97539 18311 ft 436 kts 84°
2026-04-20 15:30 32.70965 -115.93950 18657 ft 439 kts 84°
2026-04-20 15:30 32.71303 -115.90336 19000 ft 442 kts 84°
2026-04-20 15:31 32.71643 -115.86696 19348 ft 445 kts 84°
2026-04-20 15:31 32.71982 -115.83035 19696 ft 448 kts 84°
2026-04-20 15:31 32.72317 -115.79394 20033 ft 450 kts 84°
2026-04-20 15:31 32.72656 -115.75691 20371 ft 453 kts 84°
2026-04-20 15:32 32.72999 -115.71957 20702 ft 456 kts 84°
2026-04-20 15:32 32.73342 -115.68207 21040 ft 458 kts 84°
2026-04-20 15:32 32.73682 -115.64433 21374 ft 461 kts 84°
2026-04-20 15:32 32.74021 -115.60633 21705 ft 464 kts 84°
2026-04-20 15:33 32.74361 -115.56813 22038 ft 467 kts 84°
2026-04-20 15:33 32.74702 -115.52971 22363 ft 469 kts 84°
2026-04-20 15:33 32.75008 -115.49103 22683 ft 472 kts 85°
2026-04-20 15:33 32.75197 -115.45199 23001 ft 475 kts 87°
2026-04-20 15:34 32.75290 -115.41269 23326 ft 477 kts 89°
2026-04-20 15:34 32.75330 -115.37316 23618 ft 480 kts 89°
2026-04-20 15:34 32.75357 -115.33343 23879 ft 482 kts 89°
2026-04-20 15:34 32.75400 -115.29358 24156 ft 484 kts 88°
2026-04-20 15:35 32.75468 -115.25353 24436 ft 485 kts 88°
2026-04-20 15:35 32.75556 -115.21338 24709 ft 487 kts 88°
2026-04-20 15:35 32.75657 -115.17312 24986 ft 489 kts 88°
2026-04-20 15:35 32.75762 -115.13273 25265 ft 490 kts 87°
2026-04-20 15:36 32.75860 -115.09216 25541 ft 492 kts 88°
2026-04-20 15:36 32.75950 -115.05151 25802 ft 493 kts 88°
2026-04-20 15:36 32.76035 -115.01072 26049 ft 495 kts 88°
2026-04-20 15:36 32.76118 -114.96996 26393 ft 494 kts 88°
2026-04-20 15:37 32.76197 -114.92921 26759 ft 492 kts 88°
2026-04-20 15:37 32.76276 -114.88861 27119 ft 491 kts 87°
2026-04-20 15:37 32.76356 -114.84812 27463 ft 490 kts 87°
2026-04-20 15:37 32.76438 -114.80765 27807 ft 489 kts 87°
2026-04-20 15:38 32.76517 -114.76726 28154 ft 488 kts 87°
2026-04-20 15:38 32.76591 -114.72749 28484 ft 488 kts 87°
2026-04-20 15:38 32.76665 -114.68727 28821 ft 487 kts 87°
2026-04-20 15:38 32.76737 -114.64710 29148 ft 486 kts 87°
2026-04-20 15:39 32.76807 -114.60701 29475 ft 485 kts 87°
2026-04-20 15:39 32.76873 -114.56689 29800 ft 485 kts 87°
2026-04-20 15:39 32.76933 -114.52688 30105 ft 484 kts 87°
2026-04-20 15:39 32.76989 -114.48687 30366 ft 484 kts 87°
2026-04-20 15:40 32.77042 -114.44695 30632 ft 483 kts 87°
2026-04-20 15:40 32.77095 -114.40703 30899 ft 483 kts 87°
2026-04-20 15:40 32.77149 -114.36715 31167 ft 482 kts 87°
2026-04-20 15:40 32.77202 -114.32728 31432 ft 482 kts 87°
2026-04-20 15:41 32.77250 -114.28750 31703 ft 482 kts 87°
2026-04-20 15:41 32.77295 -114.24768 31980 ft 481 kts 87°
2026-04-20 15:41 32.77337 -114.20800 32253 ft 481 kts 87°
2026-04-20 15:41 32.77379 -114.16835 32526 ft 480 kts 86°
2026-04-20 15:42 32.77422 -114.12869 32793 ft 480 kts 86°
2026-04-20 15:42 32.77465 -114.08898 32949 ft 479 kts 86°
2026-04-20 15:42 32.77508 -114.04945 32982 ft 478 kts 86°
2026-04-20 15:43 32.77665 -113.97070 32979 ft 475 kts 81°
2026-04-20 15:43 32.78715 -113.89349 32975 ft 473 kts 77°
2026-04-20 15:44 32.79825 -113.81650 32975 ft 473 kts 77°
2026-04-20 15:44 32.80920 -113.73989 32972 ft 473 kts 77°
2026-04-20 15:45 32.82422 -113.66419 32946 ft 468 kts 65°
2026-04-20 15:45 32.84773 -113.59172 32951 ft 471 kts 65°
2026-04-20 15:46 32.87105 -113.51882 32955 ft 472 kts 65°
2026-04-20 15:46 32.89434 -113.44571 32962 ft 473 kts 65°
2026-04-20 15:47 32.91778 -113.37251 32978 ft 473 kts 65°
2026-04-20 15:47 32.94120 -113.29933 32982 ft 473 kts 65°
2026-04-20 15:48 32.96451 -113.22609 32989 ft 473 kts 65°